{"data":{"norad_id":67895,"intl_designator":"2026-035S","name":"STARLINK-36866","alt_names":[],"object_type":"PAYLOAD","status":"ACTIVE","operator":null,"country":"US","launch_date":"2026-02-21","launch_site_code":"AFWTR","launch_vehicle":null,"mission":null,"orbit_class":"UNKNOWN","rcs_meters":null,"size_class":null,"mass_kg":null,"dimensions":null,"purposes":["comms"],"wikipedia_slug":null,"has_3d_model":false,"image_url":null,"decayed_at":null,"tle_current":{"epoch":"2026-09-17T18:36:38.674368Z","epoch_age_seconds":298704,"freshness":"STALE","line1":"1 67895U 26035S   26260.77544762  .00021881  00000+0  67828-3 0  9992","line2":"2 67895  97.2842 192.6364 0001890 102.4287 257.7168 15.33437111 33429","mean_motion":15.33437111,"eccentricity":0.000189,"inclination_deg":97.2842,"raan_deg":192.6364,"arg_perigee_deg":102.4287,"mean_anomaly_deg":257.7168,"bstar":0.00067828,"rev_number":3342,"period_min":93.90668777156,"perigee_km":464.27318670315,"apogee_km":466.8601066816,"semimajor_km":6843.7036466924,"source":"CELESTRAK","updated_at":"2026-09-20T09:00:43.698869Z"}}}